Evanston, WY

4:01 PM MDT on August 23, 2016 (GMT -0600)
Evanston-Uinta County Burns

Weather History for KEVW - December, 2013

Change the Weather History Date:

Wednesday, December 4, 2013

  Actual Average Record
Temperature  
Mean Temperature 4 °F 22 °F  
Max Temperature 8 °F 30 °F 48 °F (2007)
Min Temperature 0 °F 14 °F -1 °F (2005)
Degree Days  
Heating Degree Days 61 43  
Month to date heating degree days 162 170  
Since 1 July heating degree days 2057 2279  
Cooling Degree Days 0 0  
Month to date cooling degree days 0 0  
Year to date cooling degree days 348 162  
Moisture  
Dew Point -4 °F    
Average Humidity 83    
Maximum Humidity 87    
Minimum Humidity 79    
Precipitation  
Precipitation T in 0.02 in 0.34 in (2004)
Month to date precipitation T 0.09  
Year to date precipitation 5.20 11.64  
Sea Level Pressure  
Sea Level Pressure 29.90 in    
Wind  
Wind Speed 7 mph (ESE)    
Max Wind Speed 14 mph    
Max Gust Speed -    
Visibility 7 miles    
Events Snow    
T = Trace of Precipitation, MM = Missing Value Source: NWS Daily Summary

Daily Weather History Graph

Daily Weather History Graph

Search for Another Location

Airport or City:

Trip Planner

Search our weather history database for the weather conditions in past years. The results will help you decide how hot, cold, wet, or windy it might be!

Date:

Astronomy

Dec. 04, 2013 Rise Set
Actual Time 7:33 AM MST 4:55 PM MST
Civil Twilight 7:02 AM MST 5:25 PM MST
Nautical Twilight 6:28 AM MST 6:00 PM MST
Astronomical Twilight 5:55 AM MST 6:33 PM MST
Moon 9:04 AM MST (12/4) 7:10 PM MST (12/4)
Length of Visible Light 10h 23m
Length of Day
9h 21m
Waxing Crescent, 5% of the Moon is Illuminated
Dec 4
Waxing Crescent
Dec 9
First Quarter
Dec 17
Full
Dec 25
Last Quarter
Jan 1
New

Hourly Weather History & Observations

Time (MST) Temp. Windchill Dew Point Humidity Pressure Visibility Wind Dir Wind Speed Gust Speed Precip Events Conditions
12:53 AM 6.1 °F -4.3 °F 1.0 °F 80% 29.77 in 10.0 mi North 5.8 mph - N/A   Overcast
1:53 AM 6.1 °F -5.6 °F 1.0 °F 80% 29.77 in 10.0 mi NNW 6.9 mph - N/A   Overcast
2:53 AM 3.0 °F -12.5 °F -2.9 °F 76% 29.80 in 10.0 mi North 10.4 mph - N/A   Mostly Cloudy
3:53 AM 1.9 °F -12.9 °F -2.0 °F 83% 29.81 in 10.0 mi ENE 9.2 mph - N/A   Clear
4:13 AM 1.4 °F -11.3 °F -2.2 °F 85% 29.61 in 10.0 mi East 6.9 mph - N/A   Mostly Cloudy
4:53 AM 1.9 °F -10.6 °F -2.0 °F 83% 29.85 in 7.0 mi East 6.9 mph - 0.00 in Snow Light Snow
5:53 AM 1.9 °F -10.6 °F -2.0 °F 83% 29.87 in 6.0 mi East 6.9 mph - 0.00 in Snow Light Snow
6:53 AM 1.9 °F -10.6 °F -2.9 °F 80% 29.89 in 10.0 mi East 6.9 mph - 0.00 in   Overcast
7:53 AM 1.9 °F -7.6 °F -2.9 °F 80% 29.91 in 5.0 mi East 4.6 mph - N/A   Haze
8:28 AM 1.4 °F -6.2 °F -4.0 °F 78% 29.68 in 1.8 mi East 3.5 mph - 0.00 in Snow Light Snow
8:38 AM 1.4 °F -9.9 °F -4.0 °F 78% 29.69 in 1.5 mi East 5.8 mph - 0.00 in Snow Light Snow
8:48 AM -0.4 °F -13.4 °F -5.8 °F 78% 29.69 in 2.0 mi East 6.9 mph - 0.00 in Snow Light Snow
8:53 AM -0.0 °F -13.0 °F -5.1 °F 79% 29.94 in 2.0 mi East 6.9 mph - 0.00 in Snow Light Snow
8:59 AM -0.4 °F -12.0 °F -5.8 °F 78% 29.69 in 1.5 mi ENE 5.8 mph - 0.00 in Snow Light Snow
9:04 AM -0.4 °F -10.4 °F -4.0 °F 85% 29.70 in 2.0 mi ENE 4.6 mph - 0.00 in Snow Light Snow
9:29 AM 1.4 °F -8.3 °F -4.0 °F 78% 29.71 in 4.0 mi East 4.6 mph - 0.00 in   Haze
9:41 AM -0.4 °F -10.4 °F -4.0 °F 85% 29.71 in 1.8 mi East 4.6 mph - 0.00 in Snow Light Snow
9:48 AM -0.4 °F -10.4 °F -5.8 °F 78% 29.71 in 3.0 mi East 4.6 mph - 0.00 in   Haze
9:49 AM -0.0 °F -7.9 °F -5.1 °F 79% 29.97 in 3.0 mi East 3.5 mph - 0.00 in   Haze
10:10 AM 1.4 °F - -2.2 °F 85% 29.72 in 10.0 mi Calm Calm - N/A   Scattered Clouds
10:53 AM 1.9 °F - -2.0 °F 83% 29.99 in 10.0 mi Calm Calm - N/A   Clear
11:53 AM 1.9 °F -5.6 °F -2.0 °F 83% 29.99 in 10.0 mi ESE 3.5 mph - N/A   Clear
12:53 PM 3.0 °F -6.4 °F -2.0 °F 80% 29.98 in 10.0 mi South 4.6 mph - N/A   Clear
1:24 PM 3.2 °F -7.8 °F -2.2 °F 78% 29.73 in 10.0 mi SSE 5.8 mph - N/A   Mostly Cloudy
1:53 PM 3.9 °F -6.9 °F -0.9 °F 80% 29.99 in 2.5 mi South 5.8 mph - 0.00 in Snow Light Snow
2:08 PM 3.2 °F -4.2 °F -0.4 °F 85% 29.74 in 6.0 mi Variable 3.5 mph - 0.00 in   Haze
2:36 PM 5.0 °F -10.8 °F -0.4 °F 78% 29.74 in 10.0 mi WSW 11.5 mph - 0.00 in   Partly Cloudy
2:53 PM 6.1 °F -10.9 °F -2.0 °F 69% 30.01 in 10.0 mi WSW 13.8 mph - 0.00 in   Clear
3:53 PM 3.9 °F -13.7 °F -2.0 °F 76% 30.07 in 10.0 mi WSW 13.8 mph - N/A   Clear
4:53 PM -0.0 °F -18.7 °F -7.1 °F 72% 30.12 in 10.0 mi West 13.8 mph - N/A   Clear
5:53 PM -2.0 °F -19.6 °F -8.0 °F 76% 30.14 in 10.0 mi WSW 11.5 mph - N/A   Clear
6:53 PM -6.0 °F -21.5 °F -9.9 °F 83% 30.18 in 10.0 mi SW 8.1 mph - N/A   Clear
7:53 PM -6.0 °F -22.6 °F -9.9 °F 83% 30.19 in 10.0 mi SW 9.2 mph - N/A   Clear
8:53 PM -6.0 °F -21.5 °F -9.9 °F 83% 30.22 in 10.0 mi WSW 8.1 mph - N/A   Clear
9:53 PM -6.0 °F -21.5 °F -11.0 °F 79% 30.22 in 10.0 mi WSW 8.1 mph - N/A   Clear
10:53 PM -4.0 °F -17.8 °F -9.0 °F 79% 30.20 in 10.0 mi SSW 6.9 mph - N/A   Clear
11:53 PM -6.0 °F -18.6 °F -9.9 °F 83% 30.22 in 10.0 mi SW 5.8 mph - N/A   Clear